Dati Storici

Data ora Umidita' aria (%) Temperatura aria (°C) Rad globale (W/m²) Gonioanemometro (°) Tacoanemometro (m/s) Pioggia (mm)
17-06-2020 00:10 84.6 % 19.894 -73.297 2.579 0 0
17-06-2020 00:00 82.6 % 20.428 -80.072 0.678 0 0
16-06-2020 23:50 81.3 % 20.674 -68.057 0.87 0 0
16-06-2020 23:40 82.7 % 20.77 -63.884 0.212 0 0
16-06-2020 23:30 80.3 % 20.78 -60.374 -0.011 0 0
16-06-2020 23:20 78.9 % 21.007 -69.88 -0.011 0 0
16-06-2020 23:10 76 % 21.311 -74.438 -0.01 0 0
16-06-2020 23:00 74.3 % 21.489 -64.836 1.063 0 0
16-06-2020 22:50 72.7 % 21.511 -79.77 1.13 0 0
16-06-2020 22:40 73.1 % 21.512 -67.344 -0.012 0 0
16-06-2020 22:30 72.4 % 21.633 -60.253 1.304 0 0
16-06-2020 22:20 72.1 % 21.842 -71.387 0.049 0 0
16-06-2020 22:10 71.3 % 22.007 -79.876 -0.016 0 0
16-06-2020 22:00 70.8 % 22.118 -58.824 -0.016 0 0
16-06-2020 21:50 70.1 % 22.161 -77.951 -0.016 0 0
16-06-2020 21:40 69.5 % 22.28 -53.052 -0.014 0 0
16-06-2020 21:30 68.6 % 22.545 -77.943 -0.018 0 0
16-06-2020 21:20 67.5 % 22.646 -65.173 -0.019 0 0
16-06-2020 21:10 67 % 22.82 -70.589 -0.018 0 0
16-06-2020 21:00 66.8 % 22.831 -45.01 -0.017 0 0

I dati sono presentati in modo automatico a scopo informativo. In seguito a verifica i dati possono subire modifiche o essere invalidati e non riportati negli archivi definitivi.